Blackjack Aces-4

decayed
NORAD ID: 56952 Int'l Des: 2023-084 Owner: DARPA Country: US
LEOCIRCULARRETROGRADE

Blackjack Aces-4について

説明を読み込み中...

高度履歴

Altitude vs Time

uPlot chart will show altitude changes over time

軌道要素

1 56952U 23084W 26030.83958131 .13023617 26890-5 16733-3 0 9999
2 56952 97.5252 190.3044 0012431 258.1516 101.8394 16.48891214147955
Epoch: Jan 30, 2026 • Age: 761 hours

現在のステータス

Position data unavailable
打ち上げ日 Jun 12, 2023
運用期間 2.7 years
落下予定日 Jan 30, 2026
タイプ other

技術仕様

分類 Payload
質量 200.00 kg
乾燥質量 200.00 kg
総質量 200.00 kg
長さ 1.50 m
直径 0.50 m
スパン 1.50 m
形状 Box
製造者 BLCAN/LMSS
バスタイプ X-SAT
フェーズステータス Unknown Transfer Status
所有者/国 DARPA/US

大規模コンステレーション

Loading constellations...